Location: Carnières
(50.1682°N, 3.3474°E)
Time: 14:34:49
(UTC+00:00)

MOZ.5/SAFIR/RUBIN 5/SL-8 - Pass Details

Date: 08 August 2024
Orbit: 671 x 698 km, 98.3° (Epoch: 14 September)

Event Time Altitude Azimuth Distance (km) Brightness Sun altitude
Exits shadow 23:47:00 11° 97° (E) 2,050 6.1 -24.1°
Maximum altitude 23:49:48 18° 57° (ENE) 1,660 6.1 -24.1°
Drops below altitude 10° 23:53:01 10° 15° (NNE) 2,166 7.3 -24.1°
Sets 23:55:52 0° 357° (N) 3,092 8.6 -24.1°
